Location: Highridge
(54.0333°N, 114.1333°W)
Time: 12:53:27
(UTC+00:00)

Oscar 19 - Pass Details

Date: 29 November 2023
Orbit: 771 x 789 km, 98.9° (Epoch: 01 March)

Event Time Altitude Azimuth Distance (km) Brightness Sun altitude
Rises 13:33:57 0° 12° (NNE) 3,268 13.8 -15.9°
Reaches altitude 10° 13:36:23 10° 5° (N) 2,338 13.0 -15.6°
Maximum altitude 13:41:07 39° 298° (WNW) 1,165 11.0 -14.9°
Drops below altitude 10° 13:45:52 10° 231° (SW) 2,335 12.8 -14.3°
Sets 13:48:17 0° 224° (SW) 3,262 13.6 -13.9°
